Location: ?????
(30.2541°N, 31.0910°E)
Time: 08:12:16
(UTC+00:00)

METEOR-M - Pass Details

Date: 27 September 2022
Orbit: 815 x 820 km, 98.6° (Epoch: 28 November)

Event Time Altitude Azimuth Distance (km) Brightness Sun altitude
Rises 01:41:04 0° 10° (N) 3,353 7.6 -27.7°
Reaches altitude 10° 01:43:25 10° 9° (N) 2,417 6.8 -27.2°
Maximum altitude 01:48:46 77° 284° (WNW) 843 4.0 -26.0°
Enters shadow 01:48:51 76° 273° (W) 844 3.9 -26.0°
